Keene, NH (03431)

1:12 PM EST on February 13, 2016 (GMT -0500)
Court St. | | Change Station
CLOSE
Current Station
Personal Weather Station
Location: Keene, NH
Elevation: 522 ft
Nearby Weather Stations
Active Advisory: Wind Chill Warning Active Notice: Public Information Statement

Elev 522 ft 42.94 °N, 72.29 °W | Updated 4 minutes ago

Mostly Cloudy
Mostly Cloudy
19.4 °F
Feels Like 13 °F
N
4.7
Wind Variable Wind from West

Today
High -- | Low -- °F
--% Chance of Precip.
Yesterday
High -- | Low -- °F
Precip. -- in
Pressure 29.88 in
Visibility 10.0 miles
Clouds Mostly Cloudy 5500 ft
Windchill 13 °F
Dew Point -3 °F
Humidity 37%
Rainfall 0.00 in
Snow Depth Not available.
6:50 AM 5:17 PM
Waxing Crescent, 33% visible
METAR KEEN 131755Z AUTO 25010G19KT 10SM BKN055 M10/M24 A2988 RMK AO1 11080 21150 52007
Pressure 29.88 in
Visibility 10.0 miles
Clouds Mostly Cloudy 5500 ft
Windchill 13 °F
Dew Point -3 °F
Humidity 37%
Rainfall 0.00 in
Snow Depth Not available.
6:50 AM 5:17 PM
Waxing Crescent, 33% visible
METAR KEEN 131755Z AUTO 25010G19KT 10SM BKN055 M10/M24 A2988 RMK AO1 11080 21150 52007

10-Day Weather Forecast

Almanac

Astronomy

Feb. 13, 2016 Rise Set
Actual Time
Civil Twilight
Nautical Twilight
Astronomical Twilight
Moon
Length of Visible Light
Length of Day
Tomorrow will be .
, % of the Moon is Illuminated

Today's Extremes

State Highs State Lows

Community

WunderPhotos

Upload Photos

1,892,632 photos uploaded!

WunderBlog® & News

Nearby

Air Quality

  Air Quality AQ Index Pollutant
Not available.

Snow Depth

Station Depth Elevation

Earthquake Activity

City Distance Mag. Time & Date
Minimum magnitude displayed is 2.5.

Coastal Water Temperatures

Place Temperature

Stations

Nearby Weather Stations

Station Location Temp. Windchill Dew Point Humidity Wind Precip. Elev Updated Type
                   

Watches & Warnings

Wind Chill Warning
Issued: 12:17 PM EST Feb. 13, 2016 – National Weather Service

... Wind chill warning remains in effect from midnight tonight to
10 am EST Sunday...

* hazard types... dangerous wind chill readings.

* Wind chill... as low as 37 below due to temperatures 3 below to
14 below zero... and winds northwest 10 to 20 mph with gusts up
to 30 mph.

* Timing... late Saturday night and Sunday morning.

* Impacts... frostbite and hypothermia if unprotected from the
cold.

* Winds... northwest 10 to 20 mph with gusts up to 30 mph.

* Temperatures... 3 below to 14 below zero.

Precautionary/preparedness actions...

A wind chill warning means the combination of very cold air and
strong winds will create dangerously low wind chill values. This
will result in frost bite and lead to hypothermia or death if
precautions are not taken.